This is the latest recevied weather packets stored in our database for station/object KB1RMA-4. If no packets are shown the sender has not sent any weather packets the latest 10 day(s).
| Time | Temp. | Humidity | Pressure | Rain* | Wind** | Luminosity | Snow |
|---|---|---|---|---|---|---|---|
| 1787691464 | 26.11° C | 49% | 1012.3 hPa | 0 mm | - | 261 W/m² | - |
| 1787691163 | 26.67° C | 49% | 1012.4 hPa | 0 mm | - | 283 W/m² | - |
| 1787690859 | 26.67° C | 48% | 1012.3 hPa | 0 mm | - | 298 W/m² | - |
| 1787690558 | 26.67° C | 48% | 1012.6 hPa | 0 mm | - | 302 W/m² | - |
| 1787690254 | 26.67° C | 48% | 1012.6 hPa | 0 mm | - | 317 W/m² | - |
| 1787689952 | 26.11° C | 49% | 1012.7 hPa | 0 mm | - | 329 W/m² | - |
| 1787689646 | 26.11° C | 50% | 1012.8 hPa | 0 mm | - | 336 W/m² | - |
| 1787689341 | 26.11° C | 51% | 1012.7 hPa | 0 mm | - | 363 W/m² | - |
| 1787689041 | 25.56° C | 51% | 1012.8 hPa | 0 mm | - | 461 W/m² | - |
| 1787688737 | 25° C | 52% | 1012.8 hPa | 0 mm | - | 276 W/m² | - |
| 1787688432 | 25° C | 52% | 1012.8 hPa | 0 mm | - | 183 W/m² | - |
| 1787688127 | 25.56° C | 51% | 1012.7 hPa | 0 mm | - | 188 W/m² | - |
| 1787687822 | 25.56° C | 50% | 1012.7 hPa | 0 mm | - | 135 W/m² | - |
| 1787687517 | 26.67° C | 48% | 1012.8 hPa | 0 mm | - | 147 W/m² | - |
| 1787687213 | 26.67° C | 48% | 1012.9 hPa | 0 mm | - | 510 W/m² | - |
| 1787686909 | 26.11° C | 49% | 1012.6 hPa | 0 mm | - | 522 W/m² | - |
| 1787686605 | 26.11° C | 49% | 1012.9 hPa | 0 mm | - | 527 W/m² | - |
| 1787686299 | 26.11° C | 50% | 1012.8 hPa | 0 mm | - | 577 W/m² | - |
| 1787685995 | 25.56° C | 51% | 1012.6 hPa | 0 mm | - | 622 W/m² | - |
| 1787685691 | 25.56° C | 54% | 1012.7 hPa | 0 mm | - | 711 W/m² | - |
| 1787685390 | 25° C | 53% | 1012.8 hPa | 0 mm | - | 238 W/m² | - |
| 1787685085 | 25° C | 53% | 1012.8 hPa | 0 mm | - | 244 W/m² | - |
| 1787684781 | 25° C | 53% | 1012.9 hPa | 0 mm | - | 204 W/m² | - |
| 1787684480 | 25.56° C | 53% | 1012.8 hPa | 0 mm | - | 189 W/m² | - |
| 1787684175 | 25.56° C | 53% | 1013.1 hPa | 0 mm | - | 241 W/m² | - |
* Rain latest hour (hover to see other rain measurements)
** Current wind speed in m/s (hover to see current wind gust speed)